TimeCST,TemperatureF,Dew PointF,Humidity,Sea Level PressureIn,VisibilityMPH,Wind Direction,Wind SpeedMPH,Gust SpeedMPH,PrecipitationIn,Events,Conditions,WindDirDegrees,DateUTC
12:15 AM,44.6,37.4,76,30.16,9.0,Calm,Calm,-,0.00,,Clear,0,2013-02-12 06:15:00
12:35 AM,44.6,35.6,71,30.15,10.0,Calm,Calm,-,0.00,,Clear,0,2013-02-12 06:35:00
12:55 AM,44.6,37.4,76,30.16,9.0,Calm,Calm,-,0.00,,Clear,0,2013-02-12 06:55:00
1:15 AM,44.6,37.4,76,30.15,9.0,Calm,Calm,-,0.00,,Clear,0,2013-02-12 07:15:00
1:35 AM,44.6,37.4,76,30.14,8.0,Calm,Calm,-,0.00,,Clear,0,2013-02-12 07:35:00
1:55 AM,44.6,37.4,76,30.16,9.0,Calm,Calm,-,0.00,,Clear,0,2013-02-12 07:55:00
2:15 AM,42.8,37.4,81,30.17,10.0,Calm,Calm,-,0.00,,Clear,0,2013-02-12 08:15:00
2:35 AM,44.6,37.4,76,30.16,10.0,Calm,Calm,-,0.00,,Clear,0,2013-02-12 08:35:00
2:55 AM,42.8,37.4,81,30.13,10.0,Calm,Calm,-,0.00,,Clear,0,2013-02-12 08:55:00
3:15 AM,42.8,37.4,81,30.15,8.0,Calm,Calm,-,0.00,,Clear,0,2013-02-12 09:15:00
3:35 AM,42.8,37.4,81,30.15,10.0,Calm,Calm,-,0.00,,Clear,0,2013-02-12 09:35:00
3:55 AM,39.2,37.4,93,30.15,8.0,Calm,Calm,-,0.00,,Clear,0,2013-02-12 09:55:00
4:15 AM,39.2,37.4,93,30.15,8.0,Calm,Calm,-,0.00,,Clear,0,2013-02-12 10:15:00
4:35 AM,41.0,37.4,87,30.13,9.0,Calm,Calm,-,0.00,,Clear,0,2013-02-12 10:35:00
4:55 AM,41.0,37.4,87,30.11,10.0,NE,6.9,-,0.00,,Clear,50,2013-02-12 10:55:00
5:15 AM,41.0,37.4,87,30.11,10.0,ENE,4.6,-,0.00,,Clear,70,2013-02-12 11:15:00
5:35 AM,41.0,37.4,87,30.11,10.0,Calm,Calm,-,0.00,,Clear,0,2013-02-12 11:35:00
5:55 AM,39.2,35.6,87,30.10,10.0,Calm,Calm,-,0.00,,Clear,0,2013-02-12 11:55:00
6:50 AM,39.2,33.8,81,30.09,10.0,Calm,Calm,-,N/A,,Partly Cloudy,0,2013-02-12 12:50:00
7:50 AM,42.8,35.6,76,30.09,10.0,NE,4.6,-,N/A,,Mostly Cloudy,50,2013-02-12 13:50:00
8:50 AM,46.4,35.6,66,30.06,10.0,NE,8.1,-,N/A,,Mostly Cloudy,50,2013-02-12 14:50:00
9:50 AM,46.4,32.0,57,30.07,10.0,East,11.5,-,N/A,,Mostly Cloudy,80,2013-02-12 15:50:00
10:50 AM,46.4,33.8,62,30.08,10.0,Calm,Calm,-,N/A,,Overcast,0,2013-02-12 16:50:00
11:50 AM,46.4,37.4,71,30.08,10.0,NNE,4.6,-,N/A,,Overcast,30,2013-02-12 17:50:00
1:50 PM,48.2,33.8,58,30.00,9.0,East,5.8,-,N/A,,Overcast,80,2013-02-12 19:50:00
3:50 PM,48.2,33.8,58,29.91,7.0,ENE,5.8,-,N/A,Rain,Light Rain,60,2013-02-12 21:50:00
4:50 PM,44.6,39.2,81,29.89,10.0,ENE,6.9,-,N/A,,Overcast,70,2013-02-12 22:50:00
5:50 PM,44.6,41.0,87,29.92,10.0,NE,9.2,-,N/A,,Overcast,50,2013-02-12 23:50:00
6:50 PM,44.6,41.0,87,29.89,10.0,ENE,10.4,-,N/A,,Overcast,60,2013-02-13 00:50:00
7:50 PM,44.6,39.2,81,29.86,10.0,ENE,11.5,-,N/A,,Overcast,60,2013-02-13 01:50:00
8:35 PM,44.6,41.0,87,29.85,10.0,ENE,10.4,-,0.00,,Overcast,70,2013-02-13 02:35:00
8:55 PM,44.6,41.0,87,29.83,10.0,ENE,9.2,-,0.00,,Overcast,70,2013-02-13 02:55:00
9:15 PM,44.6,41.0,87,29.82,9.0,East,8.1,-,0.00,,Overcast,80,2013-02-13 03:15:00
9:35 PM,44.6,41.0,87,29.80,10.0,East,9.2,-,0.00,,Overcast,90,2013-02-13 03:35:00
9:55 PM,44.6,41.0,87,29.81,10.0,ENE,5.8,-,0.00,,Mostly Cloudy,60,2013-02-13 03:55:00
10:15 PM,44.6,41.0,87,29.82,10.0,Calm,Calm,-,0.00,,Mostly Cloudy,0,2013-02-13 04:15:00
10:35 PM,42.8,42.8,100,29.82,10.0,Calm,Calm,-,0.00,,Mostly Cloudy,0,2013-02-13 04:35:00
10:55 PM,42.8,42.8,100,29.83,8.0,Calm,Calm,-,0.00,,Overcast,0,2013-02-13 04:55:00
11:15 PM,42.8,42.8,100,29.82,3.0,Calm,Calm,-,0.00,,Mostly Cloudy,0,2013-02-13 05:15:00
11:35 PM,42.8,42.8,100,29.81,3.0,Calm,Calm,-,0.00,,Scattered Clouds,0,2013-02-13 05:35:00
11:55 PM,42.8,42.8,100,29.81,4.0,Calm,Calm,-,0.00,,Partly Cloudy,0,2013-02-13 05:55:00